Miscellaneous Local Product
Issued by NWS North Platte, NE

Home | Current Version | Previous Version | Graphics & Text | Print | Product List | Glossary On
Versions: 1 2 3 4 5 6 7 8 9 10 11 12 13 14 15 16 17 18 19 20 21 22 23 24 25 26 27 28 29 30 31 32 33 34 35 36 37 38 39 40 41 42 43 44 45 46 47 48 49 50
000
AXUS43 KLBF 180410
MISLBF


WESTERN AND NORTH CENTRAL NEBRASKA HOURLY WEATHER ROUNDUP
NATIONAL WEATHER SERVICE NORTH PLATTE NE
1000 PM CST TUE JAN 17 2017

NOTE: "FAIR" INDICATES FEW OR NO CLOUDS BELOW 12,000 FEET WITH NO
SIGNIFICANT WEATHER AND/OR OBSTRUCTIONS TO VISIBILITY.

NOTE: STATIONS NOT REPORTING VARIABLES SUCH AS SKY/WEATHER OR
PRESSURE ARE PROVIDED BY RAWS AND APRS NETWORKS AND ARE NOT UNDER
NATIONAL WEATHER SERVICE QUALITY CONTROL.

...OBSERVATIONS IN AND NEAR THE EASTERN PANHANDLE OF NEBRASKA...

CITY           SKY/WX    TMP DP  RH WIND       PRES   REMARKS
PINE RIDGE     CLOUDY    16  12  84 E5        29.93F WCI   9
CHADRON        CLOUDY    18  14  84 SW8       29.95R WCI   8
ALLIANCE       CLOUDY    19  15  84 W8        29.95S WCI   9
SIDNEY         CLOUDY    27  23  85 W6        29.99S WCI  20
CRESCENT LAKE    N/A     50  24  36 W5          N/A
$$

...OBSERVATIONS IN NORTHERN NEBRASKA AND FAR SOUTHERN SOUTH DAKOTA...

CITY           SKY/WX    TMP DP  RH WIND       PRES   REMARKS
WINNER         FAIR      36  19  50 SW10      29.89F WCI  28
VALENTINE      CLOUDY    27  18  69 W8        29.92F WCI  19
THEDFORD       CLOUDY    29  26  89 CALM      29.97S
AINSWORTH      CLOUDY    33  28  81 SW12      29.92F WCI  24
O`NEILL        CLOUDY    32  28  83 SW9       29.96S WCI  24
ORD            CLEAR     29  25  85 CALM      29.99S
BROKEN BOW     CLEAR     28  25  88 CALM      29.99S
VALENTINE NWR    N/A     33  24  71 W7          N/A  WCI  27
BUTTE            N/A     32  26  78 S5          N/A  WCI  27
HALSEY           N/A     34  25  70 SW5         N/A  WCI  30
SARGENT          N/A     27  22  79 CALM        N/A
CHAMBERS         N/A     32  26  77 S5          N/A  WCI  27
EWING            N/A     32  30  92 SW3         N/A
$$

...OBSERVATIONS IN SOUTHWEST NEBRASKA AND FAR NORTHEAST COLORADO...

CITY           SKY/WX    TMP DP  RH WIND       PRES   REMARKS
WRAY           FAIR      27  27 100 W5        30.03R WCI  21
HOLYOKE        FAIR      25  21  86 W7        30.00F WCI  17
IMPERIAL       CLOUDY    30  27  88 SW8       30.02R WCI  22
OGALLALA       CLOUDY    30  28  92 SW3       30.00R
NORTH PLATTE   CLEAR     25  22  88 N3        30.01R
MCCOOK         CLEAR     31  27  85 SW9       30.05R WCI  23
LEXINGTON      CLOUDY    33  26  76 S5        30.03R WCI  28
STAPLETON        N/A     28  25  89 CALM        N/A
GOTHENBURG       N/A     34  25  69 CALM        N/A
CALLAWAY         N/A     30  26  86 SW8         N/A  WCI  22
$$

...OBSERVATIONS IN CENTRAL LINCOLN COUNTY AREA...

CITY           SKY/WX    TMP DP  RH WIND       PRES   REMARKS
N.P. AIRPORT   CLEAR     25  22  88 N3        30.01R
N.P. DOWNTOWN    N/A     31  27  85 CALM        N/A
N.P. SOUTHEAST   N/A     32  27  82 CALM        N/A
N.P. HILLCREST   N/A     34  29  80 CALM        N/A
$$

...SOME OBSERVATIONS FROM AROUND THE REGION...

CITY           SKY/WX    TMP DP  RH WIND       PRES   REMARKS
LARAMIE        CLOUDY     7   5  91 N3        30.07S
CHEYENNE       CLOUDY    25  12  58 W9        30.00S WCI  15
DENVER         CLOUDY    31  22  69 SW12      30.00F WCI  22
AKRON          CLOUDY    26  22  84 W12       30.00S WCI  16
SCOTTSBLUFF    CLOUDY    30  14  51 NW7       29.98S WCI  23
RAPID CITY     CLOUDY    29  10  45 NW3       29.88F
BISMARCK       CLOUDY    30  19  63 SW6       29.76S WCI  24
PIERRE         CLOUDY    22  16  78 SW5       29.87F WCI  16
SIOUX FALLS    CLOUDY    27  26  96 S7        29.97F WCI  19
OMAHA          CLOUDY    26  22  84 SE7       30.08F FOG     WCI  18
GRAND ISLAND   CLOUDY    32  30  92 S7        30.04S WCI  26
KANSAS CITY    CLOUDY    27  24  89 S6        30.15R WCI  20
WICHITA        CLOUDY    36  33  89 S3        30.16R
OKLAHOMA CITY  CLOUDY    47  36  65 SE8       30.15F
DALLAS         CLOUDY    48  45  89 NE7       30.15R
AMARILLO       CLOUDY    43  37  79 S14       30.16R
DODGE CITY     CLOUDY    35  29  78 SE5       30.12F WCI  31
HAYS           CLEAR     31  27  85 SW5       30.13R WCI  26
GOODLAND       CLEAR     36  30  79 SW16      30.05R WCI  26
$$




USA.gov is the U.S. government's official web portal to all federal, state and local government web resources and services.